This is the latest recevied weather packets stored in our database for station/object LU8AQL-WX. If no packets are shown the sender has not sent any weather packets the latest 10 day(s).
| Time | Temp. | Humidity | Pressure | Rain* | Wind** | Luminosity | Snow |
|---|---|---|---|---|---|---|---|
| 1777561209 | 18.33° C | 58% | 1016 hPa | 0 mm | - | - | - |
| 1777560608 | 18.33° C | 56% | 1016 hPa | 0 mm | - | - | - |
| 1777560007 | 18.33° C | 56% | 1016 hPa | 0 mm | - | - | - |
| 1777559407 | 18.33° C | 56% | 1016 hPa | 0 mm | - | - | - |
| 1777558805 | 18.33° C | 59% | 1016 hPa | 0 mm | - | - | - |
| 1777558205 | 18.33° C | 60% | 1016 hPa | 0 mm | - | - | - |
| 1777557604 | 17.78° C | 65% | 1016 hPa | 0 mm | - | - | - |
| 1777557003 | 17.22° C | 66% | 1016 hPa | 0 mm | - | - | - |
| 1777556402 | 17.22° C | 67% | 1016 hPa | 0 mm | - | - | - |
| 1777555800 | 16.67° C | 68% | 1016 hPa | 0 mm | - | - | - |
| 1777555199 | 16.67° C | 68% | 1016 hPa | 0 mm | - | - | - |
| 1777554598 | 16.67° C | 66% | 1016 hPa | 0 mm | - | - | - |
| 1777553997 | 16.11° C | 71% | 1016 hPa | 0 mm | - | - | - |
| 1777553396 | 16.11° C | 71% | 1016 hPa | 0 mm | - | - | - |
| 1777552795 | 15.56° C | 74% | 1016 hPa | 0 mm | - | - | - |
| 1777552194 | 15.56° C | 76% | 1016 hPa | 0 mm | - | - | - |
| 1777550992 | 13.89° C | 79% | 1016 hPa | 0 mm | - | - | - |
| 1777550391 | 14.44° C | 80% | 1016 hPa | 0 mm | - | - | - |
| 1777549790 | 15° C | 77% | 1016 hPa | 0 mm | - | - | - |
| 1777549189 | 14.44° C | 78% | 1016 hPa | 0 mm | - | - | - |
| 1777548588 | 13.33° C | 78% | 1015 hPa | 0 mm | - | - | - |
| 1777547987 | 13.33° C | 78% | 1015 hPa | 0 mm | - | - | - |
| 1777547386 | 13.33° C | 79% | 1015 hPa | 0 mm | - | - | - |
| 1777546785 | 13.33° C | 81% | 1015 hPa | 0 mm | - | - | - |
| 1777546184 | 13.33° C | 80% | 1015 hPa | 0 mm | - | - | - |
* Rain latest hour (hover to see other rain measurements)
** Current wind speed in m/s (hover to see current wind gust speed)